Blakely, GA

10:39 PM EST on November 17, 2019 (GMT -0500)
Blakely

Weather History for KBIJ - October, 2019

Change the Weather History Date:

Tuesday, October 22, 2019

  Actual Average (WUND) Record (WUND)
Temperature  
Mean Temperature 63 °F -  
Max Temperature 73 °F - - (-1)
Min Temperature 53 °F - - (-1)
Degree Days  
Heating Degree Days 2    
Growing Degree Days 13 (Base 50)    
Moisture  
Dew Point 52 °F    
Average Humidity 66    
Maximum Humidity 94    
Minimum Humidity 22    
Precipitation  
Precipitation 0.00 in - - ()
Sea Level Pressure  
Sea Level Pressure 29.99 in    
Wind  
Wind Speed 5 mph (West)    
Max Wind Speed 15 mph    
Max Gust Speed 22 mph    
Visibility 10 miles    
Events Rain    
Averages and records for this station are not official NWS values.
T = Trace of Precipitation, MM = Missing Value Source: NWS Daily Summary

Daily Weather History Graph

Daily Weather History Graph

Search for Another Location

Airport or City:

Astronomy

Oct. 22, 2019 Rise Set
Actual Time 7:47 AM EDT 7:00 PM EDT
Civil Twilight 7:22 AM EDT 7:24 PM EDT
Nautical Twilight 6:54 AM EDT 7:53 PM EDT
Astronomical Twilight 6:26 AM EDT 8:21 PM EDT
Moon 1:27 AM EDT (10/22) 3:39 PM EDT (10/22)
Length of Visible Light 12h 02m
Length of Day
11h 12m
Last Quarter, 37% of the Moon is Illuminated
Oct 22
Last Quarter
Oct 27
New
Nov 4
First Quarter
Nov 12
Full
Nov 19
Last Quarter

Hourly Weather History & Observations

Time (EDT) Temp. Dew Point Humidity Pressure Visibility Wind Dir Wind Speed Gust Speed Precip Events Conditions
12:15 AM 68.0 °F 64.4 °F 88% 30.01 in 4.0 mi Calm Calm - N/A Rain Rain
12:35 AM 68.0 °F 64.4 °F 88% 29.98 in 7.0 mi Calm Calm - N/A Rain Rain
12:55 AM 68.0 °F 64.4 °F 88% 29.97 in 5.0 mi SSE 5.8 mph - N/A Rain Rain
1:15 AM 68.0 °F 64.4 °F 88% 29.93 in 7.0 mi SE 6.9 mph - N/A Rain Light Rain
1:35 AM 68.0 °F 64.4 °F 88% 29.92 in 10.0 mi South 5.8 mph - N/A Rain Light Rain
1:55 AM 68.0 °F 64.4 °F 88% 29.90 in 10.0 mi SSE 5.8 mph - N/A   Scattered Clouds
2:15 AM 68.0 °F 64.4 °F 88% 29.89 in 10.0 mi SSE 5.8 mph - N/A   Clear
2:35 AM 68.0 °F 64.4 °F 88% 29.89 in 10.0 mi SSE 5.8 mph - N/A   Mostly Cloudy
2:55 AM 68.0 °F 64.4 °F 88% 29.87 in 10.0 mi SSE 6.9 mph - N/A   Overcast
3:15 AM 68.0 °F 66.2 °F 94% 29.91 in 7.0 mi SSW 5.8 mph - N/A   Overcast
3:35 AM 68.0 °F 66.2 °F 94% 29.90 in 10.0 mi South 4.6 mph - N/A   Overcast
3:55 AM 68.0 °F 64.4 °F 88% 29.91 in 10.0 mi SW 4.6 mph - N/A   Overcast
4:15 AM 68.0 °F 64.4 °F 88% 29.90 in 10.0 mi SW 4.6 mph - N/A   Mostly Cloudy
4:35 AM 68.0 °F 64.4 °F 88% 29.89 in 10.0 mi South 5.8 mph - N/A   Mostly Cloudy
4:55 AM 68.0 °F 64.4 °F 88% 29.89 in 10.0 mi WSW 4.6 mph - N/A   Mostly Cloudy
5:15 AM 68.0 °F 64.4 °F 88% 29.89 in 10.0 mi SW 5.8 mph - N/A   Overcast
5:35 AM 68.0 °F 64.4 °F 88% 29.90 in 10.0 mi SW 6.9 mph - N/A   Overcast
5:55 AM 68.0 °F 64.4 °F 88% 29.90 in 10.0 mi SW 6.9 mph - N/A   Overcast
6:15 AM 68.0 °F 64.4 °F 88% 29.91 in 10.0 mi SW 8.1 mph - N/A   Overcast
6:35 AM 68.0 °F 64.4 °F 88% 29.92 in 10.0 mi WSW 9.2 mph 16.1 mph N/A   Overcast
6:55 AM 68.0 °F 64.4 °F 88% 29.93 in 10.0 mi WSW 6.9 mph - N/A   Overcast
7:15 AM 68.0 °F 64.4 °F 88% 29.94 in 10.0 mi West 5.8 mph - N/A   Overcast
7:35 AM 68.0 °F 64.4 °F 88% 29.95 in 10.0 mi West 6.9 mph - N/A   Overcast
7:55 AM 68.0 °F 64.4 °F 88% 29.95 in 10.0 mi West 6.9 mph - N/A   Overcast
8:15 AM 68.0 °F 64.4 °F 88% 29.95 in 10.0 mi WSW 5.8 mph - N/A   Overcast
8:35 AM 68.0 °F 64.4 °F 88% 29.95 in 10.0 mi WSW 8.1 mph - N/A   Overcast
8:55 AM 69.8 °F 64.4 °F 83% 29.96 in 10.0 mi WSW 5.8 mph - N/A   Overcast
9:15 AM 62.6 °F 59.0 °F 88% 30.00 in 7.0 mi NW 15.0 mph 21.9 mph N/A Rain Light Rain
9:55 AM 62.6 °F 55.4 °F 77% 30.02 in 10.0 mi NNW 10.4 mph 18.4 mph N/A   Overcast
10:15 AM 62.6 °F 53.6 °F 72% 30.02 in 10.0 mi NNW 11.5 mph 18.4 mph N/A   Overcast
10:35 AM 64.4 °F 53.6 °F 68% 30.03 in 10.0 mi NW 6.9 mph - N/A   Overcast
10:55 AM 64.4 °F 53.6 °F 68% 30.03 in 10.0 mi North 10.4 mph - N/A   Overcast
11:15 AM 64.4 °F 53.6 °F 68% 30.03 in 10.0 mi North 8.1 mph - N/A   Overcast
11:35 AM 64.4 °F 51.8 °F 64% 30.04 in 10.0 mi NNW 10.4 mph 19.6 mph N/A   Overcast
11:55 AM 66.2 °F 51.8 °F 60% 30.04 in 10.0 mi NW 6.9 mph - N/A   Mostly Cloudy
12:15 PM 68.0 °F 51.8 °F 56% 30.04 in 10.0 mi NNW 8.1 mph - N/A   Mostly Cloudy
12:35 PM 68.0 °F 51.8 °F 56% 30.03 in 10.0 mi NNW 9.2 mph - N/A   Mostly Cloudy
12:55 PM 69.8 °F 46.4 °F 43% 30.03 in 10.0 mi NNW 10.4 mph 19.6 mph N/A   Scattered Clouds
1:15 PM 69.8 °F 46.4 °F 43% 30.02 in 10.0 mi North 8.1 mph 17.3 mph N/A   Clear
1:35 PM 71.6 °F 44.6 °F 38% 30.01 in 10.0 mi NW 8.1 mph - N/A   Mostly Cloudy
1:55 PM 71.6 °F 42.8 °F 35% 30.00 in 10.0 mi NW 5.8 mph - N/A   Mostly Cloudy
2:15 PM 71.6 °F 44.6 °F 38% 29.99 in 10.0 mi NW 6.9 mph - N/A   Scattered Clouds
2:35 PM 71.6 °F 44.6 °F 38% 29.99 in 10.0 mi NNW 8.1 mph - N/A   Clear
2:55 PM 73.4 °F 44.6 °F 36% 29.98 in 10.0 mi West 9.2 mph - N/A   Clear
3:15 PM 73.4 °F 42.8 °F 33% 29.99 in 10.0 mi NW 8.1 mph - N/A   Clear
3:35 PM 73.4 °F 39.2 °F 29% 29.99 in 10.0 mi NNW 10.4 mph - N/A   Clear
4:35 PM 73.4 °F 32.0 °F 22% 30.00 in 10.0 mi WNW 10.4 mph 17.3 mph N/A   Clear
4:55 PM 73.4 °F 32.0 °F 22% 30.00 in 10.0 mi NW 6.9 mph - N/A   Clear
5:35 PM 71.6 °F 35.6 °F 27% 30.00 in 10.0 mi NW 8.1 mph - N/A   Clear
5:55 PM 71.6 °F 35.6 °F 27% 30.01 in 10.0 mi NW 6.9 mph - N/A   Clear
6:15 PM 68.0 °F 32.0 °F 26% 30.02 in 10.0 mi WNW 6.9 mph - N/A   Clear
6:35 PM 68.0 °F 33.8 °F 28% 30.03 in 10.0 mi NW 5.8 mph - N/A   Clear
6:55 PM 66.2 °F 33.8 °F 30% 30.03 in 10.0 mi Calm Calm - N/A   Clear
7:15 PM 60.8 °F 42.8 °F 52% 30.04 in 10.0 mi Calm Calm - N/A   Clear
7:35 PM 57.2 °F 44.6 °F 63% 30.05 in 10.0 mi Calm Calm - N/A   Clear
7:55 PM 57.2 °F 46.4 °F 67% 30.05 in 10.0 mi Calm Calm - N/A   Clear
8:15 PM 55.4 °F 44.6 °F 67% 30.06 in 10.0 mi Calm Calm - N/A   Clear
8:35 PM 53.6 °F 46.4 °F 77% 30.06 in 10.0 mi Calm Calm - N/A   Clear
8:55 PM 55.4 °F 44.6 °F 67% 30.07 in 10.0 mi West 3.5 mph - N/A   Clear
9:15 PM 55.4 °F 44.6 °F 67% 30.07 in 10.0 mi Calm Calm - N/A   Clear
9:35 PM 55.4 °F 44.6 °F 67% 30.08 in 10.0 mi Calm Calm - N/A   Clear
9:55 PM 55.4 °F 42.8 °F 63% 30.08 in 10.0 mi West 3.5 mph - N/A   Clear
10:15 PM 59.0 °F 39.2 °F 48% 30.09 in 10.0 mi WNW 3.5 mph - N/A   Clear
10:35 PM 59.0 °F 39.2 °F 48% 30.10 in 10.0 mi WNW 3.5 mph - N/A   Clear
10:55 PM 59.0 °F 37.4 °F 45% 30.10 in 10.0 mi Calm Calm - N/A   Clear
11:15 PM 59.0 °F 39.2 °F 48% 30.10 in 10.0 mi Calm Calm - N/A   Clear
11:35 PM 55.4 °F 41.0 °F 58% 30.10 in 10.0 mi Calm Calm - N/A   Clear
11:55 PM 55.4 °F 41.0 °F 58% 30.11 in 10.0 mi Calm Calm - N/A   Clear